Regional Weather Roundup
Issued by NWS Wakefield, VA

Home | Current Version | Previous Version | Graphics & Text | Print | Product List | Glossary On
Versions: 1 2 3 4 5 6 7 8 9 10 11 12 13 14 15 16 17 18 19 20 21 22 23 24 25 26 27 28
000
ASUS41 KAKQ 060615
RWRAKQ

REGIONAL WEATHER ROUNDUP
NATIONAL WEATHER SERVICE WAKEFIELD VA
200 AM EDT FRI MAY 06 2016

Note: "fair" indicates few or no clouds below 12,000 feet with no
significant weather and/or obstructions to visibility. * = Denotes
station may not report precipitation (e.g., rain,snow,etc.),
thunder or fog.

VAZ042-051-052>054-056-060700-
NORTHERN VIRGINIA

CITY           SKY/WX    TMP DP  RH WIND       PRES   REMARKS
WASH NATIONAL  CLOUDY    54  50  86 N9        29.67F
DULLES         CLOUDY    52  49  89 N9        29.68S
FORT BELVOIR   DRIZZLE   54  50  87 NW8       29.66F
QUANTICO       LGT RAIN  53  50  89 N9        29.67F
FREDERICKSBRG* CLOUDY    52  52 100 N5        29.66F
STAFFORD*      CLOUDY    51  49  93 N6        29.71S
WARRENTON      CLOUDY    53  47  81 N7        29.67F
CULPEPER*      RAIN      52  51  97 N6        29.69S
MANASSAS*      CLOUDY    52  52 100 N8        29.68S
LEESBURG*      CLOUDY    52  52 100 N5        29.69S
WINCHESTER     RAIN      50  50 100 CALM      29.70S
FRONT ROYAL*   CLOUDY    50  50 100 CALM      29.69S
LURAY*         LGT RAIN  50  50 100 NE3       29.70S
$$

VAZ048-049-060>072-079>083-060700-
CENTRAL AND SOUTH CENTRAL VIRGINIA

CITY           SKY/WX    TMP DP  RH WIND       PRES   REMARKS
RICHMOND       LGT RAIN  50  50 100 N5        29.65S
CHESTERFIELD*  CLOUDY    52  39  62 N6        29.66F
PETERSBURG*    RAIN      53  53 100 CALM      29.66S
HANOVER        RAIN      51  49  92 N5        29.66F FOG
TAPPAHANNOCK*  MOCLDY    52  52 100 CALM      29.65F
QUINTON*       CLOUDY    51  50  99 N7        29.64F
CHARLOTTSVILLE LGT RAIN  52  49  89 N3        29.68S
GORDONSVILLE*  CLOUDY    51  50  97 N7        29.67F
ORANGE*        RAIN      52  52 100 SW6       29.69F
LOUISA*        DRIZZLE   54  54 100 N8        29.66S
BUMPASS*       CLOUDY    51  50  97 NE3       29.66F
FARMVILLE*     RAIN      52  52 100 CALM      29.66S
CREWE*         CLOUDY    50  50 100 CALM      29.66S
FORT PICKETT*  NOT AVBL
CHASE CITY*    CLOUDY    50  48  94 CALM      29.67S
CLARKSVILLE*   CLOUDY    50  50 100 CALM      29.66S
SOUTH HILL*    CLOUDY    49  49  99 CALM      29.72S
LAWRENCEVILLE* CLOUDY    50  50 100 N3        29.65F
EMPORIA*       HVY RAIN  50  50 100 CALM      29.67S
$$

VAZ088>098-060700-
SOUTHEAST VIRGINIA

CITY           SKY/WX    TMP DP  RH WIND       PRES   REMARKS
NORFOLK        HVY RAIN  52  48  86 N3        29.63R FOG
VIRGINIA BEACH RAIN      54  48  80 NE7       29.62R
NORFOLK NAVAL  RAIN      53  49  86 NE6       29.64S FOG
WEST POINT*    CLOUDY    51  51  97 CALM      29.65S
SALUDA*        CLOUDY    52  51  97 N5        29.63S
NEWPORT NEWS   LGT RAIN  52  52 100 W7        29.63F
LANGLEY AFB    CLOUDY    52  50  93 VRB1      29.62S
FORT EUSTIS    DRIZZLE   52  52  99 NW2       29.62S
WILLIAMSBURG*  CLOUDY    54  52  94 CALM      29.65S
HR EXEC AP*    CLOUDY    52  48  87 NE5       29.65S
FRANKLIN*      CLOUDY    51  49  91 CALM      29.65F
US460-WAKEFLD  LGT RAIN  51  49  92 CALM      29.64F
$$

VAZ020-022-025-037-045-060700-
WEST CENTRAL AND SOUTHWEST VIRGINIA

CITY           SKY/WX    TMP DP  RH WIND       PRES   REMARKS
STAUNTON*      CLOUDY    52  51  93 N3        29.71S
WAYNESBORO*    CLOUDY    49  46  90 N7        29.70R
HOT SPRINGS VA FOG       42  42 100 NW10      29.69S VSB 1/2
LYNCHBURG      LGT RAIN  50  49  96 NE7       29.69S
DANVILLE       LGT RAIN  49  48  97 VRB3      29.69S
SOUTH BOSTON*  CLOUDY    50  49  95 CALM      29.68S
MARTINSVILLE   CLOUDY    45  45 100 CALM      29.72S
ROANOKE        CLOUDY    51  44  77 W3        29.72S
BLACKSBURG     CLOUDY    47  45  93 W3        29.75S
DUBLIN*        CLOUDY    49  46  90 NW8       29.75S
MARION*        DRIZZLE   45  43  95 W10       29.79F
HILLSVILLE*    RAIN      43  43  98 W7        29.72F
RICHLANDS*     LGT RAIN  44  35  69 NW6       29.79S VSB 1/2
WISE*          CLOUDY    45  45 100 NW7G16    29.84S
ABINGDON*      CLOUDY    48  47  94 W5        29.81S
$$

MDZ021>025-VAZ099-100-060700-
SOUTHERN MARYLAND AND THE DELMARVA PENINSULA

CITY           SKY/WX    TMP DP  RH WIND       PRES   REMARKS
PATUXENT RIVER CLOUDY    53  48  83 NE9       29.64F
BAY BRIDGE APT NOT AVBL
LEONARDTOWN    CLOUDY    50  50 100 CALM      29.65F
DOVER          LGT RAIN  52  50  93 NE7       29.64F
GEORGETOWN     CLOUDY    50  48  93 NE9       29.65S
EASTON         CLOUDY   N/A N/A N/A CALM      29.68F
CAMBRIDGE      CLOUDY    50  46  87 NE3       29.64F
SALISBURY      CLOUDY    50  48  93 NE7       29.63F
OCEAN CITY     LGT RAIN  49  46  90 NE17G24   29.62F
WALLOPS ISLAND LGT RAIN  50  48  93 N12G23    29.62F FOG
ACCOMACK*      DRIZZLE  N/A N/A N/A N8        29.60F
$$

NCZ012>017-030>032-060700-
NORTH CENTRAL AND EASTERN NORTH CAROLINA

CITY           SKY/WX    TMP DP  RH WIND       PRES   REMARKS
ROANOKE RAPIDS LGT RAIN  50  50 100 N3        29.65F
RALEIGH        LGT RAIN  50  49  96 CALM      29.67S FOG
ELIZABETH CITY CLOUDY    51  49  92 W5        29.65S
AHOSKIE*       DRIZZLE   51  50  95 CALM      29.65F
EDENTON*       CLOUDY    53  53 100 CALM      29.66S
CURRITUCK*     CLOUDY    51  50  95 N7        29.65R
KILL DEVIL HLS CLOUDY    51  49  95 NW3       29.63R
MANTEO         CLOUDY    51  49  94 N3        29.65R
CAPE HATTERAS  CLOUDY    53  50  89 CALM      29.64F
TARBORO*       RAIN      53  51  96 CALM      29.66S
GOLDSBORO      CLOUDY    52  52 100 SW9       29.64
WASHINGTON     DRIZZLE   51  50  95 CALM      29.65S
GREENVILLE     LGT RAIN  52  52 100 CALM      29.68F
NEW BERN       CLOUDY    54  51  90 SW6       29.66F
WILMINGTON     CLEAR     51  46  83 W10       29.69S
$$

VAZ048-060700-
ELSEWHERE

CITY           SKY/WX    TMP DP  RH WIND       PRES   REMARKS
HARRISBURG PA  CLOUDY    53  48  83 CALM      29.68S
BALTIMORE      CLOUDY    53  49  86 N3        29.65F
ANNAPOLIS      CLOUDY    53  51  93 W3        29.65F
ANDREWS AFB    CLOUDY    52  50  93 N8        29.65F
PHILADELPHIA   CLOUDY    55  45  68 E7        29.68R
HENDERSON NC   RAIN      50  50 100 CALM      29.67S
GREENSBORO     LGT RAIN  47  46  97 W5        29.69F
ROCKY MOUNT    LGT RAIN  52  51  97 N6        29.65S FOG
$$

VAZ100-060700-
MARINE

STATION/POSITION TIME  TEMP    WIND        PRES    WAVE   SWELL
                       AIR SEA DIR/SP/G            HT/PER HT/PER
                 (UTC) (F)     (DEG/KT/KT) (MB)    (FT/S) (FT/S)
BRANDYWINE LGT   0500   51      70/ 17/ 19 1004.1F
CAPE MAY NJ      0500   49 56   50/  7/ 10 1003.7F
LEWES DE         0500   50 55   60/ 18/ 20 1003.7F
15NM E FENWICK I 0550   49 51              1002.5F   8/ 9
OCEAN-CITY-INLET 0500   50 54   60/  6/ 14 1002.9S
WACHAPREAGUE VA  0500   50 56   10/  8/ 12 1002.7F
THOMAS POINT MD  0600   54 57   10/  4/  5 1005.4F
GOOSES REEF MD   0500   55 58   60/  8/ 10 1005.4R   1
COVE POINT MD    0500   53      50/  8/ 11 1004.4F
SOLOMONS ISLAND  0500   53 60  360/  3/  5   N/A
BISHOPS HEAD MD  0500   52 58   20/  8/ 10 1002.9F
PINEY POINT MD   0500          360/  7/  7   N/A
POTOMAC MD       0500   54 59   30/  8/ 12 1002.8F   1
CAMBRIDGE MD     0500   52 60   80/  7/  8 1003.4F
LEWISETTA VA     0500   54 60   30/  5/  8 1003.4F
RAPPAHANNOCK LGT 0500           40/ 16/ 17 1003.5F
STINGRAY PT      0500   54 61   40/ 14/ 16 1003.5F   2/ 3
YORK RVR RNG VA  0500   54      30/ 13/ 15 1002.4F
YORKTOWN VA      0500   53 63  350/  5/  7 1003.0F
JAMESTOWN VA     0500   51 66   40/  2/  4   N/A
DOMINION TERM VA 0500   53      40/  2/  3 1003.2F
KIPTOPEKE VA     0500      60   30/  5/ 11   N/A
CHES BAY BRIDGE  0500   52 59   10/ 16/ 19 1002.2F
CAPE HENRY VA    0500   51      30/ 25/ 27   N/A
CHESAPEAKE LGHT  0500   50      30/ 24/ 26 1002.3F
WILLOUBY STN VA  0500   53      30/ 16/ 18 1003.8F
CAPE HENRY BUOY  0512      55                N/A     6/ 8
CAPE CHARLES BUO 0526      56                N/A     6/ 8   3/ 8
OFFSHORE WE BUOY 0521      54                N/A     8/ 8   2/14
64NM E OF VA BCH 0550   50 51   10/ 17/ 21 1000.8F   8/ 8   5/ 8
DUCK PIER NC     0500   52 60   10/ 12/ 15 1002.4R
44100 DUCK FRF   0524      55                N/A     7/ 8
44056 DUCK FRF   0511      60                N/A     5/ 8
OREGON INLET NC  0500   51 60  340/  7/ 11 1003.1R
HATTERAS NC      0500   56 67  340/  8/ 10 1003.6R
DIAMOND SHLS NC  0550   55 77  360/  6/ 10 1003.9F   4/ 8   3/ 8
CAPE LOOKOUT NC  0500   55     360/  6/  8 1003.9F
$$




USA.gov is the U.S. government's official web portal to all federal, state and local government web resources and services.